Temperature
21 20 20 20 20 20 19 19 19 19 19 19 18 18 18 18 18 18 18 17 17 17 17 17 17 17 17 16 16 16 16 16 16 16 16 16 16 16 16 16 16 16 16
20 20 20 20 20 19 19 19 19 19 19 18 18 18 18 18 18 18 17 17 17 17 17 17 17 17 16 16 16 16 16 16 16 16 16 16 16 16 16 16 16 15 15
20 20 20 19 19 19 19 19 19 19 18 18 18 18 18 18 17 17 17 17 17 17 17 17 17 16 16 16 16 16 16 16 16 16 16 16 16 16 16 16 15 15 15
20 20 20 19 19 19 19 18 18 18 18 18 18 18 17 17 17 17 17 17 17 17 17 17 17 16 16 16 16 16 16 16 16 16 16 16 15 15 15 15 15 15 15
20 20 20 19 19 19 18 18 18 18 18 18 18 18 17 17 17 17 17 17 17 16 16 16 16 16 16 16 16 16 16 16 16 15 15 15 15 15 15 15 15 15 15
20 20 19 19 19 18 18 18 18 18 18 17 17 17 17 17 17 17 16 16 16 16 16 16 16 16 16 16 16 16 16 16 15 15 15 15 15 15 15 15 15 14 14
19 19 19 19 18 18 18 18 17 17 17 17 17 17 17 17 17 16 16 16 16 16 16 16 16 16 16 16 16 16 15 15 15 15 15 15 15 15 15 15 14 14 14
19 19 18 18 18 18 18 18 17 17 17 17 16 17 17 16 16 16 16 16 16 16 16 16 16 16 16 16 16 16 15 15 15 15 15 15 15 15 15 15 15 14 14
18 18 18 18 18 17 17 17 17 17 16 16 16 16 16 16 16 16 15 15 15 16 16 15 15 15 16 15 15 15 15 15 15 15 15 15 15 15 14 14 14 14 14
18 18 18 18 17 17 17 17 17 16 16 16 16 16 16 16 15 15 15 15 15 15 15 15 15 15 15 15 15 15 15 15 15 15 15 15 15 15 14 14 14 14 13
18 18 17 17 17 17 17 16 16 16 16 16 16 15 15 15 15 15 15 15 15 15 15 15 15 15 15 15 14 14 15 15 15 15 15 15 15 14 14 14 14 13 13
17 17 17 17 17 17 16 16 16 15 15 15 15 15 15 15 15 15 15 14 14 14 14 14 14 14 14 14 14 14 14 14 14 14 14 14 14 14 14 14 14 13 13
16 16 16 16 16 16 16 16 15 15 15 15 14 14 14 14 14 14 14 14 14 14 14 14 14 14 14 14 14 13 14 14 14 14 14 14 14 14 13 13 13 13 13
16 16 15 15 15 15 15 15 15 15 15 15 14 14 14 14 14 14 14 14 14 14 13 13 13 13 13 13 13 13 13 13 13 13 13 13 13 13 13 13 13 13 12
15 15 15 15 15 15 14 14 14 14 14 14 14 14 14 14 14 14 14 14 14 13 13 13 13 13 13 13 13 12 12 12 12 12 12 12 12 12 12 12 12 12 12
14 14 14 14 14 14 14 14 14 14 14 14 14 13 13 13 13 13 13 13 13 13 13 12 12 12 12 12 12 12 12 12 12 12 12 12 12 12 12 12 12 12 11
14 14 14 13 13 13 13 13 13 13 13 13 13 13 13 13 13 13 13 12 12 12 12 12 12 12 12 12 12 12 12 12 11 11 11 11 11 11 11 11 11 11 11
13 13 13 13 13 13 13 13 13 13 13 13 13 13 13 12 12 12 12 12 12 12 12 11 11 11 11 11 11 11 11 11 11 11 11 11 11 11 11 11 11 11 10
13 13 12 12 12 12 13 13 13 13 12 12 12 12 12 12 12 11 11 11 11 11 11 11 11 11 11 11 11 11 11 11 11 10 10 10 10 10 10 10 10 10 10
12 12 12 12 12 12 12 12 12 12 12 12 12 12 12 11 11 11 11 11 11 11 11 10 10 10 10 10 10 10 10 10 10 10 10 10 10 10 10 10 10 10 9
12 12 12 12 12 12 12 12 12 12 12 11 11 11 11 11 11 11 11 11 10 10 10 10 10 10 10 10 10 10 10 10 10 10 10 9 9 9 9 9 9 9 9
12 12 12 11 11 11 11 11 11 11 11 11 11 11 11 11 10 10 10 10 10 10 10 10 10 9 9 9 9 9 9 9 9 9 9 9 9 9 9 9 9 9 8
11 11 11 11 11 11 11 11 11 11 11 10 10 10 10 10 10 10 10 10 9 9 9 9 9 9 9 9 9 9 9 9 9 9 9 9 9 9 8 8 8 8 8
11 11 11 11 11 11 10 10 10 10 10 10 10 10 10 10 9 9 9 9 9 9 9 9 9 9 9 8 8 8 8 8 8 8 8 8 8 8 8 8 8 8 8
11 11 11 11 10 10 10 10 10 10 10 10 10 9 9 9 9 9 9 9 9 9 9 9 9 8 8 8 8 8 8 8 8 8 8 8 8 8 8 8 8 7 7
10 10 10 10 10 10 10 10 10 10 10 9 9 9 9 9 9 9 8 8 8 8 8 8 8 8 8 8 8 8 8 8 8 8 8 8 8 8 7 7 7 7 7
Wind_Speed
9 9 8 8 8 8 8 7 7 6 6 6 6 6 6 6 6 6 6 6 6 6 5 5 6 4 3 3 3 4 4 4 5 4 2 2 3 3 2 2 3 3 4
8 8 8 7 7 8 7 7 6 6 6 6 6 6 7 6 6 7 6 6 7 6 6 5 6 4 5 4 3 4 5 5 5 5 3 2 3 3 3 3 3 3 4
7 8 7 7 7 7 7 6 6 6 5 5 5 6 7 7 6 7 6 6 7 7 6 7 7 5 5 4 5 5 4 4 4 4 3 2 2 2 2 2 2 2 3
7 8 8 8 8 8 7 6 6 6 6 6 6 7 7 6 6 6 6 6 6 6 7 7 7 7 7 6 5 6 5 4 4 3 3 2 2 2 2 2 2 2 3
7 7 8 7 7 6 6 5 5 5 6 6 6 6 6 6 6 6 6 6 6 6 6 6 7 8 8 7 6 5 5 4 4 4 4 3 2 2 3 3 3 2 3
5 6 6 6 6 6 6 6 5 5 5 5 6 7 7 7 7 8 6 6 6 6 5 5 6 6 7 7 8 8 7 7 6 5 4 5 5 5 4 4 3 2 3
4 5 5 6 6 7 6 5 5 5 5 5 5 5 5 6 6 6 7 6 6 5 5 4 4 4 5 5 5 5 6 8 8 7 7 7 6 6 6 6 5 5 4
4 5 5 6 7 6 6 6 6 5 5 5 6 5 5 6 7 7 7 6 6 5 5 5 5 4 4 4 4 4 5 5 7 7 7 8 7 6 7 7 6 4 2
5 5 6 7 7 7 7 7 6 5 5 5 5 5 5 5 7 8 7 5 5 6 6 6 6 5 5 4 4 5 5 5 5 7 7 7 7 7 6 4 4 4 4
5 5 5 5 7 7 7 6 4 5 6 5 4 5 6 6 6 8 8 5 5 5 5 5 7 6 5 5 5 5 6 5 4 4 4 5 5 5 7 7 6 5 3
3 3 4 5 5 6 6 5 5 5 4 4 4 4 4 6 6 7 8 6 6 5 5 5 5 6 6 6 6 6 8 6 4 4 4 4 3 3 4 5 6 6 6
1 2 3 3 4 5 5 5 5 5 4 4 3 4 4 4 5 6 7 8 7 6 6 5 5 6 6 6 5 6 7 4 3 3 4 4 4 4 4 5 6 6 7
2 3 3 3 3 4 5 5 4 4 4 4 4 5 4 4 4 6 7 8 8 6 5 5 5 6 5 4 5 5 4 4 4 4 5 5 4 4 4 3 4 4 4
3 3 2 2 2 2 3 4 4 5 5 5 5 4 4 4 4 4 4 4 5 5 4 3 3 4 3 3 3 3 3 4 4 4 4 4 3 3 3 3 3 3 2
2 2 1 2 2 2 2 3 4 4 6 6 5 5 5 6 6 7 5 4 4 4 2 1 1 2 2 2 2 2 2 3 3 3 4 3 3 3 3 2 2 2 3
1 1 2 2 2 2 2 1 2 3 3 4 5 5 5 6 6 6 5 5 5 5 3 3 3 3 3 4 3 3 3 3 3 3 4 4 4 3 3 2 2 2 3
2 2 2 1 2 2 3 3 2 2 1 2 3 4 5 4 4 4 4 4 3 4 3 3 4 4 4 4 4 4 4 4 3 4 4 4 4 3 3 3 3 3 3
2 2 2 2 2 2 2 3 3 3 2 2 2 2 3 3 3 3 3 2 1 2 3 4 4 4 4 5 5 5 4 3 3 4 4 4 4 4 4 4 4 4 4
2 2 2 1 1 1 2 2 2 2 2 2 2 2 2 2 2 2 3 2 3 3 4 4 4 4 4 5 5 4 4 4 4 4 4 4 4 4 4 4 4 5 4
2 2 2 1 1 2 1 2 2 2 2 2 2 3 2 1 1 1 2 2 3 3 4 4 4 4 4 4 4 4 4 4 4 4 4 4 4 4 4 4 4 4 4
2 2 2 1 2 2 2 2 2 2 2 2 3 3 2 2 2 3 2 2 3 3 3 4 4 4 4 4 4 4 4 4 4 4 4 4 4 4 4 4 4 4 3
2 2 2 2 1 1 2 2 2 2 2 3 2 2 2 2 2 2 2 3 3 3 3 3 3 4 4 4 4 4 4 4 4 4 4 4 4 4 4 4 4 4 3
2 2 1 1 1 1 1 1 2 2 2 2 2 1 2 2 2 2 2 2 2 2 2 3 3 4 4 4 4 4 5 5 5 5 5 5 4 4 4 4 5 4 4
2 2 2 1 1 1 1 1 2 2 2 2 2 2 2 2 2 2 2 2 2 2 2 3 4 4 4 3 3 4 4 5 5 5 6 5 5 4 4 4 5 5 5
2 2 2 2 2 1 1 2 2 2 2 2 2 2 2 1 2 2 2 2 2 3 3 3 3 4 5 5 4 4 4 4 5 4 4 4 5 5 5 5 5 5 4
1 1 1 1 1 1 2 2 2 2 2 2 2 2 2 2 2 2 2 2 2 3 3 3 4 4 5 4 5 4 4 4 4 4 4 4 4 4 4 5 5 5 4
Wind_Direction
199 201 204 204 204 202 204 208 207 205 203 206 209 211 217 219 213 209 216 216 223 234 233 229 236 231 231 226 214 215 217 212 236 256 246 257 235 242 254 254 242 228 231
195 196 201 200 197 201 207 210 207 206 208 212 210 212 219 220 213 213 219 219 220 228 233 231 240 234 232 228 220 223 223 217 218 244 251 238 238 236 237 244 246 245 245
192 195 197 198 199 204 208 210 206 204 207 212 214 219 223 220 215 216 217 220 222 227 228 229 236 228 234 233 227 229 231 227 215 222 244 239 248 235 243 249 242 247 248
193 196 199 203 203 203 204 205 207 206 204 209 218 220 221 220 218 217 217 221 226 230 230 229 230 225 230 232 233 232 227 225 218 222 239 244 245 234 214 234 251 249 251
190 195 202 201 198 194 199 205 207 208 213 213 218 222 223 222 222 216 217 219 224 234 237 235 234 230 230 230 233 228 217 218 221 229 241 239 235 221 226 217 237 256 257
187 198 196 191 190 191 196 199 203 209 215 212 219 222 226 230 228 215 210 218 220 224 236 245 244 236 239 236 235 226 215 216 223 230 236 239 237 227 216 218 222 232 253
190 194 189 188 194 199 198 191 202 209 215 218 220 219 226 233 230 221 210 209 215 218 225 235 250 252 240 239 240 232 227 226 220 219 232 239 235 223 210 217 218 226 240
187 195 192 188 195 196 194 200 205 210 213 223 227 225 228 235 223 217 211 211 216 219 220 223 231 247 247 234 237 239 240 238 231 226 233 239 239 227 213 216 220 223 247
188 199 204 197 197 197 200 206 207 204 213 220 223 225 229 240 225 215 209 214 217 224 225 221 222 230 241 226 227 240 249 255 243 233 239 248 250 238 215 199 204 214 245
212 213 210 204 203 205 210 209 204 204 213 214 225 226 225 233 228 218 207 211 220 230 233 231 229 227 228 211 217 228 240 251 256 262 261 264 255 239 213 208 209 216 232
231 225 220 213 209 207 207 206 201 204 204 210 223 236 234 234 230 220 210 211 218 225 233 238 238 221 223 224 219 227 235 238 241 247 259 265 261 240 223 221 219 218 222
237 236 239 227 217 206 196 204 202 198 204 214 228 250 248 237 230 226 220 222 220 224 234 235 232 218 221 228 228 235 232 226 228 234 247 252 249 244 238 234 231 231 233
205 221 232 236 223 203 197 201 204 201 207 218 223 239 257 252 239 231 227 227 221 223 234 230 225 222 224 228 232 233 227 221 222 234 245 252 248 244 246 244 238 234 246
219 221 217 227 229 209 202 203 206 207 208 214 222 235 251 250 244 238 237 234 227 228 235 228 218 214 221 230 232 225 226 227 226 236 247 254 249 244 245 244 244 240 252
225 247 249 244 220 199 201 216 218 220 215 211 219 221 235 251 245 228 224 228 225 224 209 204 207 211 223 233 236 240 236 229 236 245 244 251 252 247 252 247 240 236 238
216 250 248 253 221 192 188 246 279 242 249 233 227 220 240 244 238 216 218 214 212 197 179 211 221 224 231 238 244 252 250 244 240 241 239 237 238 240 250 248 234 235 246
214 235 239 234 224 203 198 202 244 306 292 240 245 237 228 236 230 213 206 192 186 174 197 220 223 227 232 235 237 240 246 250 243 237 237 235 230 231 234 240 236 237 246
213 223 227 228 226 220 212 211 212 226 260 286 289 260 244 239 224 215 200 159 179 194 222 233 235 233 234 238 241 242 245 247 245 244 239 237 231 227 230 233 231 236 239
219 222 220 222 229 230 223 211 205 218 241 271 301 304 266 244 225 210 184 201 220 232 237 237 238 237 236 239 242 242 240 239 238 240 238 232 233 233 234 233 230 232 234
217 221 211 207 231 228 223 211 210 217 229 246 261 267 263 264 285 264 228 231 227 236 238 239 241 240 239 241 245 245 244 244 241 239 239 236 231 228 232 235 233 234 238
217 227 224 213 224 226 226 226 223 222 231 245 259 256 222 228 239 243 241 241 236 237 240 241 239 237 239 239 242 241 241 246 246 241 237 235 230 228 228 227 227 227 230
203 211 215 211 214 219 222 224 224 224 232 243 267 267 218 223 237 242 243 243 245 245 243 240 241 243 245 244 239 236 235 236 239 239 237 233 229 228 226 223 220 220 222
187 191 205 225 222 216 227 237 234 230 236 244 244 246 237 240 241 238 236 241 248 254 248 238 241 246 248 245 239 232 233 236 233 230 230 230 227 227 223 219 218 218 221
190 193 206 222 212 216 231 248 251 243 238 241 244 242 236 237 243 242 242 244 244 250 249 246 247 246 251 252 249 245 244 245 236 225 221 223 224 219 219 219 221 222 224
187 195 214 221 215 213 224 243 253 251 245 244 245 246 241 239 248 256 260 256 249 250 254 255 256 254 252 245 247 255 261 251 244 236 220 215 219 218 217 218 219 222 224
193 207 220 216 212 215 223 239 256 261 256 255 250 248 250 248 249 253 257 258 259 259 259 261 265 263 262 252 254 266 252 242 235 225 212 207 210 216 215 218 218 215 212
Height
1501 1503 1505 1507 1509 1512 1514 1516 1518 1519 1521 1522 1523 1525 1526 1526 1527 1528 1529 1530 1530 1531 1532 1532 1532 1533 1533 1533 1534 1534 1534 1534 1532 1532 1532 1532 1532 1532 1532 1532 1532 1532 1532
1496 1498 1500 1503 1505 1507 1509 1511 1513 1515 1516 1518 1519 1520 1521 1522 1524 1524 1525 1525 1526 1527 1528 1528 1529 1529 1529 1529 1530 1530 1530 1530 1529 1528 1528 1528 1529 1529 1529 1528 1528 1528 1528
1492 1494 1496 1499 1501 1503 1505 1507 1509 1510 1512 1513 1515 1516 1517 1518 1519 1520 1521 1521 1522 1522 1523 1524 1525 1525 1525 1526 1526 1526 1526 1525 1525 1524 1524 1524 1525 1525 1525 1525 1525 1525 1525
1488 1490 1491 1494 1496 1499 1501 1503 1505 1506 1507 1508 1510 1511 1512 1513 1514 1515 1516 1517 1517 1518 1519 1520 1520 1521 1521 1521 1521 1522 1522 1521 1521 1521 1520 1520 1521 1521 1521 1521 1520 1521 1521
1484 1486 1488 1490 1493 1495 1497 1499 1500 1501 1502 1503 1505 1506 1507 1508 1509 1510 1511 1512 1513 1514 1514 1515 1515 1516 1516 1517 1517 1517 1517 1517 1517 1516 1516 1516 1516 1517 1516 1517 1517 1517 1517
1480 1482 1484 1486 1488 1490 1492 1494 1496 1497 1497 1498 1500 1500 1501 1503 1504 1505 1506 1507 1507 1508 1509 1510 1511 1511 1512 1512 1512 1512 1513 1512 1512 1512 1512 1512 1512 1512 1513 1513 1513 1513 1512
1476 1478 1480 1482 1483 1486 1488 1489 1491 1492 1493 1494 1494 1495 1496 1497 1498 1499 1500 1501 1502 1503 1504 1504 1506 1506 1507 1507 1508 1508 1508 1508 1508 1509 1508 1508 1508 1508 1509 1508 1508 1508 1508
1473 1475 1476 1478 1479 1481 1483 1484 1485 1487 1488 1489 1490 1490 1491 1492 1492 1493 1494 1495 1496 1497 1498 1499 1500 1501 1502 1502 1502 1503 1503 1503 1503 1504 1504 1504 1504 1504 1504 1505 1504 1504 1504
1469 1471 1472 1474 1475 1476 1478 1479 1480 1482 1483 1484 1485 1486 1486 1487 1487 1488 1489 1489 1490 1491 1492 1493 1494 1495 1496 1497 1497 1497 1498 1498 1499 1499 1499 1499 1499 1500 1500 1500 1499 1499 1498
1466 1468 1469 1470 1471 1472 1474 1475 1476 1478 1478 1479 1480 1481 1482 1482 1483 1484 1484 1484 1484 1485 1486 1488 1488 1489 1490 1491 1491 1492 1492 1492 1493 1493 1493 1494 1494 1494 1494 1494 1494 1494 1493
1463 1464 1465 1466 1467 1468 1470 1471 1472 1473 1474 1474 1475 1476 1477 1478 1479 1480 1480 1480 1480 1480 1481 1482 1483 1483 1484 1485 1486 1486 1486 1487 1487 1487 1488 1488 1488 1488 1489 1489 1489 1489 1489
1460 1461 1462 1462 1463 1464 1465 1467 1468 1469 1469 1469 1471 1472 1472 1473 1474 1475 1476 1476 1476 1476 1476 1477 1477 1478 1478 1479 1480 1481 1481 1482 1482 1482 1482 1482 1482 1483 1483 1484 1484 1484 1484
1457 1458 1458 1459 1459 1460 1461 1462 1463 1464 1464 1465 1466 1467 1467 1468 1469 1470 1471 1471 1471 1472 1472 1472 1472 1473 1473 1474 1474 1475 1476 1476 1476 1476 1476 1477 1477 1478 1478 1478 1478 1478 1478
1454 1454 1454 1455 1455 1456 1457 1458 1458 1459 1459 1460 1461 1461 1463 1464 1464 1465 1466 1466 1466 1466 1467 1467 1467 1467 1468 1469 1469 1470 1470 1471 1471 1471 1471 1471 1472 1472 1472 1472 1473 1473 1473
1450 1450 1450 1451 1451 1451 1452 1453 1454 1455 1455 1456 1456 1457 1459 1459 1459 1460 1461 1461 1461 1461 1461 1461 1462 1462 1462 1463 1464 1464 1465 1465 1465 1466 1466 1466 1466 1466 1466 1467 1467 1467 1467
1447 1447 1447 1447 1447 1447 1448 1449 1451 1451 1452 1453 1453 1453 1454 1455 1455 1456 1456 1456 1456 1457 1457 1456 1456 1457 1458 1458 1459 1459 1460 1460 1460 1461 1461 1461 1461 1461 1461 1462 1462 1462 1462
1445 1444 1444 1444 1444 1444 1444 1445 1446 1447 1448 1449 1449 1449 1449 1450 1450 1451 1451 1451 1451 1452 1452 1451 1451 1452 1453 1454 1454 1454 1455 1455 1456 1455 1456 1456 1456 1456 1456 1457 1457 1457 1457
1442 1441 1441 1441 1441 1440 1441 1441 1442 1442 1443 1443 1444 1445 1445 1445 1446 1446 1446 1446 1446 1446 1446 1447 1447 1448 1449 1449 1449 1449 1450 1450 1450 1450 1450 1451 1451 1451 1451 1451 1452 1452 1453
1440 1439 1438 1438 1437 1438 1438 1438 1438 1439 1439 1439 1439 1440 1441 1441 1442 1442 1441 1441 1441 1441 1442 1442 1443 1443 1444 1444 1444 1444 1444 1445 1445 1445 1445 1446 1446 1446 1446 1446 1447 1448 1449
1437 1436 1435 1435 1435 1434 1434 1434 1435 1435 1435 1435 1435 1436 1437 1437 1437 1437 1437 1437 1437 1437 1438 1438 1439 1439 1439 1440 1440 1440 1440 1440 1440 1441 1441 1441 1441 1441 1442 1442 1443 1443 1444
1434 1433 1433 1432 1432 1431 1432 1432 1432 1432 1432 1432 1432 1432 1433 1433 1433 1433 1433 1433 1433 1433 1433 1434 1434 1434 1435 1434 1435 1435 1435 1435 1436 1436 1436 1437 1437 1437 1438 1438 1439 1439 1440
1431 1430 1430 1429 1429 1429 1429 1429 1429 1429 1429 1429 1429 1429 1429 1429 1429 1429 1429 1429 1430 1430 1430 1430 1430 1430 1430 1430 1430 1430 1430 1430 1431 1431 1432 1432 1433 1433 1433 1434 1435 1435 1436
1428 1427 1427 1427 1426 1426 1426 1426 1426 1426 1426 1426 1426 1426 1426 1426 1426 1426 1425 1425 1426 1426 1426 1426 1426 1426 1426 1426 1425 1425 1425 1426 1427 1427 1427 1427 1428 1428 1429 1430 1430 1431 1432
1425 1425 1425 1424 1424 1424 1423 1424 1424 1423 1423 1423 1423 1423 1423 1423 1422 1422 1422 1422 1422 1422 1422 1422 1422 1421 1421 1421 1421 1421 1421 1422 1422 1423 1423 1423 1423 1424 1425 1426 1426 1427 1428
1423 1423 1422 1422 1422 1421 1421 1421 1421 1421 1420 1420 1420 1420 1419 1419 1419 1419 1418 1418 1418 1418 1418 1418 1418 1417 1416 1416 1416 1416 1416 1417 1418 1418 1419 1419 1419 1420 1421 1422 1422 1423 1424
1421 1421 1420 1420 1420 1419 1419 1419 1418 1418 1417 1417 1417 1417 1416 1416 1416 1416 1416 1415 1415 1415 1414 1414 1414 1413 1413 1412 1412 1412 1412 1413 1414 1414 1415 1415 1415 1416 1416 1417 1418 1419 1419